Home > Weather > Plzen > Past weeks

Flag for Czech Republic Weather for the Past 2 Weeks in Plzen, Czech Republic

Now
45 °F

Clear.


Feels Like: 38 °F
Forecast: 44 / 62 °F
Wind: 15 mph from Northeast

Location: Karlovy Vary Airport

Current Time: May 1, 2016 at 7:11:58 AM

Latest Report: May 1, 2016 at 6:00 AM


Visibility: 10 mi

Pressure: 30.01 "Hg

Humidity: 66%

Dew Point: 34 °F

Location of PlzenLocation

Historic Weather in Plzen — Graph

°F

Plzen Temperature Yesterday

Maximum temperature yesterday: 61 °F (at 5:00 PM)
Minimum temperature yesterday: 34 °F (at 1:00 AM)
Average temperature yesterday: 51 °F

High & Low Weather Summary for the Past Weeks

 TemperatureHumidityPressure
High63 °F (Apr 21, 5:00 PM)100% (Apr 17, 5:00 AM)30.36 "Hg (Apr 17, 5:00 AM)
Low25 °F (Apr 29, 4:00 AM)27% (Apr 21, 5:00 PM)29.47 "Hg (Apr 26, 8:00 AM)
Average42 °F66%29.92 "Hg
* Reported Apr 16 5:00 AM — May 1 5:00 AM, Plzen, Weather by CustomWeather, © 2016

Note: Actual official high and low records may vary slightly from our data, if they occured in-between our weather recording intervals... More about our weather records

Advertising

Plzen Weather History for the Previous 24 Hours

Scroll right to see more
 ConditionsComfort  
Time TempWeatherWind HumidityBarometerVisibility
5:00 AM
Sun, May 1
45 °FClear.12 mph66%30.01 "Hg10 mi
4:00 AM45 °FClear.14 mph66%30.01 "Hg10 mi
3:00 AM45 °FClear.12 mph61%29.98 "Hg10 mi
2:00 AM46 °FClear.10 mph53%29.98 "Hg10 mi
1:00 AM50 °FClear.12 mph43%30.01 "Hg10 mi
12:00 AM50 °FClear.10 mph43%30.01 "Hg10 mi
11:00 PM
Sat, Apr 30
50 °FClear.10 mph43%30.01 "Hg10 mi
10:00 PM52 °FClear.10 mph41%30.01 "Hg10 mi
9:00 PM52 °FSunny.10 mph41%29.98 "Hg10 mi
8:30 PM52 °FSunny.10 mph44%29.98 "Hg10 mi
8:00 PM54 °FSunny.10 mph41%29.98 "Hg10 mi
7:30 PM55 °FSunny.14 mph38%29.98 "Hg10 mi
7:00 PM57 °FSunny.12 mph39%29.98 "Hg10 mi
6:30 PM57 °FSunny.13 mph36%29.98 "Hg10 mi
6:00 PM57 °FSunny.12 mph39%29.98 "Hg10 mi
5:30 PM59 °FPassing clouds.10 mph36%29.98 "HgN/A
5:00 PM61 °FPassing clouds.9 mph36%29.98 "HgN/A
4:30 PM59 °FPassing clouds.7 mph36%29.98 "HgN/A
4:00 PM59 °FPassing clouds.5 mph34%30.01 "HgN/A
3:30 PM59 °FPassing clouds.8 mph39%30.01 "HgN/A
3:00 PM57 °FPassing clouds.8 mph36%30.01 "HgN/A
2:30 PM57 °FPassing clouds.8 mph39%30.01 "HgN/A
2:00 PM59 °FPassing clouds.10 mph34%30.01 "HgN/A
1:30 PM57 °FPassing clouds.7 mph33%30.01 "HgN/A
1:00 PM57 °FPassing clouds.10 mph36%30.04 "HgN/A
12:30 PM57 °FPassing clouds.12 mph33%30.04 "HgN/A
12:00 PM57 °FPassing clouds.7 mph36%30.04 "HgN/A
11:30 AM55 °FPassing clouds.12 mph41%30.04 "HgN/A
11:00 AM54 °FPassing clouds.8 mph41%30.07 "HgN/A
10:30 AM54 °FPassing clouds.8 mph44%30.07 "HgN/A
10:00 AM52 °FPassing clouds.9 mph47%30.07 "HgN/A
9:30 AM52 °FPassing clouds.8 mph44%30.07 "HgN/A
9:00 AM50 °FPassing clouds.7 mph50%30.07 "HgN/A
8:30 AM48 °FSunny.7 mph50%30.07 "Hg10 mi
8:00 AM45 °FSunny.2 mph57%30.07 "Hg10 mi
7:00 AM39 °FSunny.2 mph65%30.07 "Hg10 mi
Weather by CustomWeather, © 2016

See weather overviewHow to use our weather pages